Hermiston, OR

11:06 PM PDT on September 19, 2017 (GMT -0700)
Hermiston Municipal

Weather History for KHRI - May, 2013

Change the Weather History Date:

Monday, May 13, 2013

  Actual Average Record
Temperature  
Mean Temperature 60 °F 59 °F  
Max Temperature 73 °F 74 °F 100 °F (1993)
Min Temperature 48 °F 44 °F 30 °F (1916)
Degree Days  
Heating Degree Days 4    
Growing Degree Days 10 (Base 50)    
Moisture  
Dew Point 47 °F    
Average Humidity 61    
Maximum Humidity 81    
Minimum Humidity 42    
Precipitation  
Precipitation 0.05 in 0.03 in 0.82 in (2015)
Month to date precipitation 0.39  
Year to date precipitation 4.81  
Sea Level Pressure  
Sea Level Pressure 30.02 in    
Wind  
Wind Speed 9 mph (SW)    
Max Wind Speed 22 mph    
Max Gust Speed 34 mph    
Visibility 10 miles    
Events Rain    
T = Trace of Precipitation, MM = Missing Value Source: NWS Daily Summary

Daily Weather History Graph

Daily Weather History Graph

Search for Another Location

Airport or City:

Trip Planner

Search our weather history database for the weather conditions in past years. The results will help you decide how hot, cold, wet, or windy it might be!

Date:

Astronomy

May. 13, 2013 Rise Set
Actual Time 5:27 AM PDT 8:20 PM PDT
Civil Twilight 4:52 AM PDT 8:54 PM PDT
Nautical Twilight 4:08 AM PDT 9:39 PM PDT
Astronomical Twilight 3:16 AM PDT 10:32 PM PDT
Moon 8:16 AM PDT (5/13) 11:32 PM PDT (5/13)
Length of Visible Light 16h 02m
Length of Day
14h 52m
Waxing Crescent, 13% of the Moon is Illuminated
May 13
Waxing Crescent
May 17
First Quarter
May 24
Full
May 31
Last Quarter
Jun 8
New

Hourly Weather History & Observations

Time (PDT) Temp. Dew Point Humidity Pressure Visibility Wind Dir Wind Speed Gust Speed Precip Events Conditions
12:53 AM 61.0 °F 48.0 °F 62% 30.00 in 10.0 mi SSW 6.9 mph - N/A   Scattered Clouds
1:53 AM 60.1 °F 48.0 °F 64% 29.99 in 10.0 mi SSW 4.6 mph - N/A   Mostly Cloudy
2:53 AM 59.0 °F 48.9 °F 69% 29.99 in 10.0 mi SSW 5.8 mph - N/A   Partly Cloudy
3:53 AM 57.0 °F 48.9 °F 74% 29.99 in 10.0 mi South 5.8 mph - N/A   Mostly Cloudy
4:53 AM 57.0 °F 48.9 °F 74% 29.99 in 10.0 mi South 5.8 mph - N/A   Overcast
5:53 AM 55.9 °F 48.9 °F 77% 30.00 in 10.0 mi South 4.6 mph - N/A   Scattered Clouds
6:53 AM 61.0 °F 50.0 °F 67% 30.01 in 10.0 mi SSW 8.1 mph - N/A   Scattered Clouds
7:53 AM 64.9 °F 51.1 °F 61% 30.00 in 10.0 mi SW 12.7 mph - N/A   Overcast
8:53 AM 66.9 °F 51.1 °F 57% 29.99 in 10.0 mi WSW 11.5 mph - N/A   Overcast
9:53 AM 72.0 °F 48.9 °F 44% 29.98 in 10.0 mi WSW 16.1 mph - N/A   Overcast
10:53 AM 73.0 °F 48.9 °F 42% 29.98 in 10.0 mi WSW 15.0 mph 21.9 mph N/A   Mostly Cloudy
11:53 AM 72.0 °F 48.0 °F 43% 29.98 in 10.0 mi West 19.6 mph 31.1 mph N/A   Overcast
1:53 PM 68.0 °F 45.0 °F 43% 29.98 in 10.0 mi West 11.5 mph 21.9 mph N/A   Overcast
2:53 PM 57.9 °F 52.0 °F 81% 30.02 in 10.0 mi West 10.4 mph - 0.01 in Rain Light Rain
3:53 PM 62.1 °F 55.9 °F 80% 29.99 in 10.0 mi South 8.1 mph - 0.04 in Rain Light Rain
5:53 PM 66.0 °F 54.0 °F 65% 30.00 in 10.0 mi Variable 4.6 mph - N/A   Scattered Clouds
6:53 PM 66.9 °F 43.0 °F 42% 30.01 in 10.0 mi West 21.9 mph 34.5 mph N/A   Clear
7:53 PM 63.0 °F 41.0 °F 45% 30.04 in 10.0 mi West 16.1 mph 27.6 mph N/A   Clear
8:53 PM 60.1 °F 42.1 °F 51% 30.07 in 10.0 mi WNW 18.4 mph 28.8 mph N/A   Clear
9:53 PM 57.0 °F 39.9 °F 53% 30.13 in 10.0 mi WSW 9.2 mph - N/A   Clear
10:53 PM 48.9 °F 41.0 °F 74% 30.14 in 10.0 mi South 10.4 mph - N/A   Clear
11:53 PM 48.9 °F 41.0 °F 74% 30.16 in 10.0 mi SSW 8.1 mph - N/A   Clear